Starlink 31611

operational
NORAD ID: 59325 Int'l Des: 2024-057 Owner: SPXS Country: US Constellation: starlink
LEOCIRCULAR

关于 Starlink 31611

正在加载描述...

实时位置

正在加载3D地球...

即将过境

高度历史

Altitude vs Time

uPlot chart will show altitude changes over time

两行轨道根数

1 59325U 24057F 25351.23275540 -.00000476 00000-0 -77631-5 0 9994
2 59325 43.0025 293.1588 0001115 302.4601 57.6143 15.27593028 97228
Epoch: Dec 17, 2025 • Age: 17 hours

当前状态

高度 482.8 km
速度 7.63 km/s
星下点 -3.25°S, 143.59°W
发射日期 Mar 25, 2024
运行时间 1.7 years
类型 internet

技术详情

分类 Payload
质量 730.00 kg
干质量 700.00 kg
总质量 730.00 kg
长度 0.30 m
直径 4.10 m
跨度 29.00 m
形状 Box + pan
制造商 SPXS
平台类型 Starlink V2M
阶段状态 In Orbit
所有者/国家 SPXS/US

大型星座

Loading constellations...